contact:dominique.lefevre@mio.osupytheas.fr, maurice.libes@osupytheas.fr, didier.mallarino@osupytheas.fr
Project:EMSO http://www.emso-fr.org/EMSO-France
Depth: 2436.0 m
Title:EMSO Ligure Ouest : Data MII capteur MICROCAT
DateTime_Computer,Latitude,Longitude,Temperature,Conductivity,Pressure,DateTime_Instrument
DateTime_Computer,Latitude,Longitude,degC,S m-1,dbar,DateTime_Instrument
2022-03-14T00:01:33Z,42.805,6.029,13.3001,4.60037,2470.474,2022-3-14T02:03:09Z
2022-03-14T00:04:36Z,42.805,6.029,13.3000,4.60036,2470.493,2022-3-14T02:06:12Z
2022-03-14T00:07:39Z,42.805,6.029,13.3003,4.60036,2470.483,2022-3-14T02:09:15Z
2022-03-14T00:10:42Z,42.805,6.029,13.3002,4.60037,2470.437,2022-3-14T02:12:18Z
2022-03-14T00:13:45Z,42.805,6.029,13.3004,4.60033,2470.474,2022-3-14T02:15:21Z
2022-03-14T00:16:49Z,42.805,6.029,13.3004,4.60037,2470.474,2022-3-14T02:18:24Z
2022-03-14T00:19:52Z,42.805,6.029,13.3005,4.60035,2470.47,2022-3-14T02:21:27Z
2022-03-14T00:22:55Z,42.805,6.029,13.3006,4.60035,2470.474,2022-3-14T02:24:31Z
2022-03-14T00:25:58Z,42.805,6.029,13.3002,4.60035,2470.45,2022-3-14T02:27:34Z
2022-03-14T00:29:01Z,42.805,6.029,13.3006,4.60034,2470.497,2022-3-14T02:30:37Z
2022-03-14T00:32:04Z,42.805,6.029,13.3004,4.60036,2470.474,2022-3-14T02:33:40Z
2022-03-14T00:35:07Z,42.805,6.029,13.3004,4.60035,2470.474,2022-3-14T02:36:43Z
2022-03-14T00:38:10Z,42.805,6.029,13.3002,4.60034,2470.497,2022-3-14T02:39:46Z
2022-03-14T00:41:14Z,42.805,6.029,13.3005,4.60035,2470.483,2022-3-14T02:42:49Z
2022-03-14T00:44:17Z,42.805,6.029,13.2999,4.60036,2470.474,2022-3-14T02:45:52Z
2022-03-14T00:47:20Z,42.805,6.029,13.3003,4.60035,2470.497,2022-3-14T02:48:56Z
2022-03-14T00:50:23Z,42.805,6.029,13.3000,4.60033,2470.497,2022-3-14T02:51:59Z
2022-03-14T00:53:26Z,42.805,6.029,13.3001,4.60034,2470.52,2022-3-14T02:55:02Z
2022-03-14T00:56:29Z,42.805,6.029,13.3000,4.60035,2470.46,2022-3-14T02:58:05Z
2022-03-14T00:59:32Z,42.805,6.029,13.3000,4.60033,2470.474,2022-3-14T03:01:08Z
2022-03-14T01:02:35Z,42.805,6.029,13.3000,4.60033,2470.46,2022-3-14T03:04:11Z
2022-03-14T01:05:39Z,42.805,6.029,13.3001,4.60034,2470.483,2022-3-14T03:07:14Z
2022-03-14T01:08:42Z,42.805,6.029,13.3002,4.60033,2470.474,2022-3-14T03:10:17Z
2022-03-14T01:11:45Z,42.805,6.029,13.3004,4.60031,2470.507,2022-3-14T03:13:21Z
2022-03-14T01:14:48Z,42.805,6.029,13.3004,4.60034,2470.483,2022-3-14T03:16:24Z
2022-03-14T01:17:51Z,42.805,6.029,13.3004,4.60036,2470.497,2022-3-14T03:19:27Z
2022-03-14T01:20:54Z,42.805,6.029,13.3001,4.60033,2470.52,2022-3-14T03:22:30Z
2022-03-14T01:23:57Z,42.805,6.029,13.3000,4.60039,2470.497,2022-3-14T03:25:33Z
2022-03-14T01:27:00Z,42.805,6.029,13.3000,4.60034,2470.53,2022-3-14T03:28:36Z
2022-03-14T01:30:04Z,42.805,6.029,13.3001,4.60033,2470.483,2022-3-14T03:31:39Z
2022-03-14T01:33:07Z,42.805,6.029,13.3004,4.60033,2470.483,2022-3-14T03:34:42Z
2022-03-14T01:36:10Z,42.805,6.029,13.3004,4.60037,2470.507,2022-3-14T03:37:46Z
2022-03-14T01:39:13Z,42.805,6.029,13.3004,4.60033,2470.483,2022-3-14T03:40:49Z
2022-03-14T01:42:16Z,42.805,6.029,13.2998,4.60037,2470.507,2022-3-14T03:43:52Z
2022-03-14T01:45:19Z,42.805,6.029,13.3005,4.60034,2470.52,2022-3-14T03:46:55Z
2022-03-14T01:48:22Z,42.805,6.029,13.3000,4.60033,2470.52,2022-3-14T03:49:58Z
2022-03-14T01:51:25Z,42.805,6.029,13.3002,4.60033,2470.483,2022-3-14T03:53:01Z
2022-03-14T01:54:28Z,42.805,6.029,13.2998,4.60033,2470.52,2022-3-14T03:56:04Z
2022-03-14T01:57:32Z,42.805,6.029,13.3006,4.60033,2470.544,2022-3-14T03:59:07Z
2022-03-14T02:00:35Z,42.805,6.029,13.3005,4.60035,2470.52,2022-3-14T04:02:10Z
2022-03-14T02:03:38Z,42.805,6.029,13.3002,4.60033,2470.52,2022-3-14T04:05:14Z
2022-03-14T02:06:41Z,42.805,6.029,13.3000,4.60033,2470.507,2022-3-14T04:08:17Z
2022-03-14T02:09:44Z,42.805,6.029,13.3000,4.60033,2470.544,2022-3-14T04:11:20Z
2022-03-14T02:12:47Z,42.805,6.029,13.3001,4.60040,2470.507,2022-3-14T04:14:23Z
2022-03-14T02:15:50Z,42.805,6.029,13.3000,4.60033,2470.507,2022-3-14T04:17:26Z
2022-03-14T02:18:53Z,42.805,6.029,13.3000,4.60036,2470.507,2022-3-14T04:20:29Z
2022-03-14T02:21:57Z,42.805,6.029,13.3000,4.60036,2470.52,2022-3-14T04:23:32Z
2022-03-14T02:25:00Z,42.805,6.029,13.3004,4.60036,2470.544,2022-3-14T04:26:35Z
2022-03-14T02:28:03Z,42.805,6.029,13.3001,4.60033,2470.567,2022-3-14T04:29:39Z
2022-03-14T02:31:06Z,42.805,6.029,13.2999,4.60034,2470.544,2022-3-14T04:32:42Z
2022-03-14T02:34:09Z,42.805,6.029,13.3006,4.60035,2470.53,2022-3-14T04:35:45Z
2022-03-14T02:37:12Z,42.805,6.029,13.3004,4.60033,2470.497,2022-3-14T04:38:48Z
2022-03-14T02:40:15Z,42.805,6.029,13.3005,4.60038,2470.553,2022-3-14T04:41:51Z
2022-03-14T02:43:18Z,42.805,6.029,13.2998,4.60036,2470.507,2022-3-14T04:44:54Z
2022-03-14T02:46:22Z,42.805,6.029,13.3001,4.60034,2470.53,2022-3-14T04:47:57Z
2022-03-14T02:49:25Z,42.805,6.029,13.3000,4.60035,2470.567,2022-3-14T04:51:00Z
2022-03-14T02:52:28Z,42.805,6.029,13.3002,4.60035,2470.544,2022-3-14T04:54:04Z
2022-03-14T02:55:31Z,42.805,6.029,13.3001,4.60034,2470.553,2022-3-14T04:57:07Z
2022-03-14T02:58:34Z,42.805,6.029,13.2998,4.60034,2470.53,2022-3-14T05:00:10Z
2022-03-14T03:01:37Z,42.805,6.029,13.3004,4.60035,2470.553,2022-3-14T05:03:13Z
2022-03-14T03:04:40Z,42.805,6.029,13.3000,4.60038,2470.53,2022-3-14T05:06:16Z
2022-03-14T03:07:43Z,42.805,6.029,13.3003,4.60034,2470.567,2022-3-14T05:09:19Z
2022-03-14T03:10:47Z,42.805,6.029,13.3002,4.60033,2470.553,2022-3-14T05:12:22Z
2022-03-14T03:13:50Z,42.805,6.029,13.3004,4.60033,2470.577,2022-3-14T05:15:25Z
2022-03-14T03:16:53Z,42.805,6.029,13.3005,4.60034,2470.53,2022-3-14T05:18:28Z
2022-03-14T03:19:56Z,42.805,6.029,13.3001,4.60035,2470.567,2022-3-14T05:21:32Z
2022-03-14T03:22:59Z,42.805,6.029,13.3000,4.60036,2470.567,2022-3-14T05:24:35Z
2022-03-14T03:26:02Z,42.805,6.029,13.3004,4.60036,2470.567,2022-3-14T05:27:38Z
2022-03-14T03:29:05Z,42.805,6.029,13.3006,4.60036,2470.567,2022-3-14T05:30:41Z
2022-03-14T03:32:08Z,42.805,6.029,13.3003,4.60034,2470.539,2022-3-14T05:33:44Z
2022-03-14T03:35:12Z,42.805,6.029,13.3005,4.60040,2470.577,2022-3-14T05:36:47Z
2022-03-14T03:38:15Z,42.805,6.029,13.3004,4.60038,2470.553,2022-3-14T05:39:50Z
2022-03-14T03:41:18Z,42.805,6.029,13.3005,4.60038,2470.567,2022-3-14T05:42:54Z
2022-03-14T03:44:21Z,42.805,6.029,13.3000,4.60036,2470.567,2022-3-14T05:45:57Z
2022-03-14T03:47:24Z,42.805,6.029,13.3004,4.60034,2470.553,2022-3-14T05:49:00Z
2022-03-14T03:50:27Z,42.805,6.029,13.3003,4.60036,2470.553,2022-3-14T05:52:03Z
2022-03-14T03:53:30Z,42.805,6.029,13.3001,4.60035,2470.577,2022-3-14T05:55:06Z
2022-03-14T03:56:33Z,42.805,6.029,13.3000,4.60033,2470.577,2022-3-14T05:58:09Z
2022-03-14T03:59:36Z,42.805,6.029,13.3001,4.60036,2470.553,2022-3-14T06:01:12Z
2022-03-14T04:02:40Z,42.805,6.029,13.3004,4.60035,2470.567,2022-3-14T06:04:15Z
2022-03-14T04:05:43Z,42.805,6.029,13.3001,4.60036,2470.591,2022-3-14T06:07:18Z
2022-03-14T04:08:46Z,42.805,6.029,13.3003,4.60035,2470.591,2022-3-14T06:10:22Z
2022-03-14T04:11:49Z,42.805,6.029,13.2998,4.60033,2470.553,2022-3-14T06:13:25Z
2022-03-14T04:14:52Z,42.805,6.029,13.3005,4.60035,2470.6,2022-3-14T06:16:28Z
2022-03-14T04:17:55Z,42.805,6.029,13.3004,4.60035,2470.577,2022-3-14T06:19:31Z
2022-03-14T04:20:58Z,42.805,6.029,13.3004,4.60034,2470.577,2022-3-14T06:22:34Z
2022-03-14T04:24:01Z,42.805,6.029,13.3004,4.60035,2470.553,2022-3-14T06:25:37Z
2022-03-14T04:27:05Z,42.805,6.029,13.3002,4.60033,2470.53,2022-3-14T06:28:40Z
2022-03-14T04:30:08Z,42.805,6.029,13.3001,4.60035,2470.577,2022-3-14T06:31:43Z
2022-03-14T04:33:11Z,42.805,6.029,13.3004,4.60035,2470.6,2022-3-14T06:34:47Z
2022-03-14T04:36:14Z,42.805,6.029,13.3005,4.60033,2470.567,2022-3-14T06:37:50Z
2022-03-14T04:39:17Z,42.805,6.029,13.3003,4.60034,2470.553,2022-3-14T06:40:53Z
2022-03-14T04:42:20Z,42.805,6.029,13.3004,4.60033,2470.577,2022-3-14T06:43:56Z
2022-03-14T04:45:23Z,42.805,6.029,13.3006,4.60036,2470.577,2022-3-14T06:46:59Z
2022-03-14T04:48:26Z,42.805,6.029,13.3006,4.60033,2470.6,2022-3-14T06:50:02Z
2022-03-14T04:51:30Z,42.805,6.029,13.2999,4.60034,2470.577,2022-3-14T06:53:05Z
2022-03-14T04:54:33Z,42.805,6.029,13.3002,4.60033,2470.591,2022-3-14T06:56:08Z
2022-03-14T04:57:36Z,42.805,6.029,13.3004,4.60036,2470.591,2022-3-14T06:59:12Z
2022-03-14T05:00:39Z,42.805,6.029,13.3003,4.60035,2470.614,2022-3-14T07:02:15Z
2022-03-14T05:03:42Z,42.805,6.029,13.3000,4.60035,2470.6,2022-3-14T07:05:18Z
2022-03-14T05:06:45Z,42.805,6.029,13.3004,4.60033,2470.591,2022-3-14T07:08:21Z
2022-03-14T05:09:48Z,42.805,6.029,13.3005,4.60036,2470.624,2022-3-14T07:11:24Z
2022-03-14T05:12:51Z,42.805,6.029,13.3004,4.60034,2470.553,2022-3-14T07:14:27Z
2022-03-14T05:15:55Z,42.805,6.029,13.3003,4.60033,2470.6,2022-3-14T07:17:30Z
2022-03-14T05:18:58Z,42.805,6.029,13.3001,4.60033,2470.6,2022-3-14T07:20:33Z
2022-03-14T05:22:01Z,42.805,6.029,13.3001,4.60035,2470.6,2022-3-14T07:23:37Z
2022-03-14T05:25:04Z,42.805,6.029,13.3001,4.60034,2470.614,2022-3-14T07:26:40Z
2022-03-14T05:28:07Z,42.805,6.029,13.3004,4.60034,2470.591,2022-3-14T07:29:43Z
2022-03-14T05:31:10Z,42.805,6.029,13.2999,4.60035,2470.591,2022-3-14T07:32:46Z
2022-03-14T05:34:13Z,42.805,6.029,13.2998,4.60033,2470.577,2022-3-14T07:35:49Z
2022-03-14T05:37:16Z,42.805,6.029,13.3004,4.60036,2470.6,2022-3-14T07:38:52Z
2022-03-14T05:40:20Z,42.805,6.029,13.3005,4.60036,2470.591,2022-3-14T07:41:55Z
2022-03-14T05:43:23Z,42.805,6.029,13.2998,4.60033,2470.591,2022-3-14T07:44:58Z
2022-03-14T05:46:26Z,42.805,6.029,13.3001,4.60035,2470.6,2022-3-14T07:48:02Z
2022-03-14T05:49:29Z,42.805,6.029,13.3001,4.60036,2470.624,2022-3-14T07:51:05Z
2022-03-14T05:52:32Z,42.805,6.029,13.3004,4.60038,2470.6,2022-3-14T07:54:08Z
2022-03-14T05:55:35Z,42.805,6.029,13.3003,4.60033,2470.6,2022-3-14T07:57:11Z
2022-03-14T05:58:38Z,42.805,6.029,13.3004,4.60033,2470.6,2022-3-14T08:00:14Z
2022-03-14T06:01:41Z,42.805,6.029,13.3002,4.60035,2470.577,2022-3-14T08:03:17Z
2022-03-14T06:04:45Z,42.805,6.029,13.3005,4.60034,2470.624,2022-3-14T08:06:20Z
2022-03-14T06:07:48Z,42.805,6.029,13.3004,4.60034,2470.614,2022-3-14T08:09:23Z
2022-03-14T06:10:51Z,42.805,6.029,13.3001,4.60033,2470.614,2022-3-14T08:12:27Z
2022-03-14T06:13:54Z,42.805,6.029,13.3001,4.60033,2470.614,2022-3-14T08:15:30Z
2022-03-14T06:16:57Z,42.805,6.029,13.3001,4.60037,2470.567,2022-3-14T08:18:33Z
2022-03-14T06:20:00Z,42.805,6.029,13.3000,4.60034,2470.591,2022-3-14T08:21:36Z
2022-03-14T06:23:03Z,42.805,6.029,13.3002,4.60033,2470.591,2022-3-14T08:24:39Z
2022-03-14T06:26:06Z,42.805,6.029,13.3002,4.60035,2470.553,2022-3-14T08:27:42Z
2022-03-14T06:29:09Z,42.805,6.029,13.3005,4.60035,2470.637,2022-3-14T08:30:45Z
2022-03-14T06:32:13Z,42.805,6.029,13.3007,4.60033,2470.6,2022-3-14T08:33:48Z
2022-03-14T06:35:16Z,42.805,6.029,13.3003,4.60037,2470.614,2022-3-14T08:36:51Z
2022-03-14T06:38:19Z,42.805,6.029,13.3008,4.60035,2470.591,2022-3-14T08:39:55Z
2022-03-14T06:41:22Z,42.805,6.029,13.3002,4.60035,2470.6,2022-3-14T08:42:58Z
2022-03-14T06:44:25Z,42.805,6.029,13.3001,4.60034,2470.6,2022-3-14T08:46:01Z
2022-03-14T06:47:28Z,42.805,6.029,13.2999,4.60035,2470.577,2022-3-14T08:49:04Z
2022-03-14T06:50:31Z,42.805,6.029,13.3005,4.60035,2470.637,2022-3-14T08:52:07Z
2022-03-14T06:53:34Z,42.805,6.029,13.3004,4.60034,2470.591,2022-3-14T08:55:10Z
2022-03-14T06:56:38Z,42.805,6.029,13.3004,4.60036,2470.591,2022-3-14T08:58:13Z
2022-03-14T06:59:41Z,42.805,6.029,13.3003,4.60037,2470.624,2022-3-14T09:01:16Z
2022-03-14T07:02:44Z,42.805,6.029,13.2999,4.60035,2470.614,2022-3-14T09:04:20Z
2022-03-14T07:05:47Z,42.805,6.029,13.2999,4.60033,2470.614,2022-3-14T09:07:23Z
2022-03-14T07:08:50Z,42.805,6.029,13.3003,4.60035,2470.6,2022-3-14T09:10:26Z
2022-03-14T07:11:53Z,42.805,6.029,13.3004,4.60034,2470.614,2022-3-14T09:13:29Z
2022-03-14T07:14:56Z,42.805,6.029,13.3004,4.60040,2470.6,2022-3-14T09:16:32Z
2022-03-14T07:17:59Z,42.805,6.029,13.3003,4.60036,2470.577,2022-3-14T09:19:35Z
2022-03-14T07:21:03Z,42.805,6.029,13.3004,4.60034,2470.591,2022-3-14T09:22:38Z
2022-03-14T07:24:06Z,42.805,6.029,13.3000,4.60034,2470.591,2022-3-14T09:25:41Z
2022-03-14T07:27:09Z,42.805,6.029,13.3007,4.60036,2470.614,2022-3-14T09:28:45Z
2022-03-14T07:30:12Z,42.805,6.029,13.3004,4.60034,2470.614,2022-3-14T09:31:48Z
2022-03-14T07:33:15Z,42.805,6.029,13.3006,4.60034,2470.614,2022-3-14T09:34:51Z
2022-03-14T07:36:18Z,42.805,6.029,13.3000,4.60033,2470.577,2022-3-14T09:37:54Z
2022-03-14T07:39:21Z,42.805,6.029,13.3003,4.60033,2470.6,2022-3-14T09:40:57Z
2022-03-14T07:42:24Z,42.805,6.029,13.3008,4.60033,2470.553,2022-3-14T09:44:00Z
2022-03-14T07:45:28Z,42.805,6.029,13.3003,4.60034,2470.567,2022-3-14T09:47:03Z
2022-03-14T07:48:31Z,42.805,6.029,13.3001,4.60033,2470.591,2022-3-14T09:50:06Z
2022-03-14T07:51:34Z,42.805,6.029,13.3001,4.60033,2470.591,2022-3-14T09:53:10Z
2022-03-14T07:54:37Z,42.805,6.029,13.3005,4.60032,2470.591,2022-3-14T09:56:13Z
2022-03-14T07:57:40Z,42.805,6.029,13.3000,4.60033,2470.591,2022-3-14T09:59:16Z
2022-03-14T08:00:43Z,42.805,6.029,13.3002,4.60033,2470.577,2022-3-14T10:02:19Z
2022-03-14T08:03:46Z,42.805,6.029,13.3000,4.60035,2470.544,2022-3-14T10:05:22Z
2022-03-14T08:06:49Z,42.805,6.029,13.2998,4.60033,2470.591,2022-3-14T10:08:25Z
2022-03-14T08:09:53Z,42.805,6.029,13.2998,4.60032,2470.577,2022-3-14T10:11:28Z
2022-03-14T08:12:56Z,42.805,6.029,13.3004,4.60033,2470.567,2022-3-14T10:14:31Z
2022-03-14T08:15:59Z,42.805,6.029,13.3003,4.60033,2470.567,2022-3-14T10:17:35Z
2022-03-14T08:19:02Z,42.805,6.029,13.3004,4.60032,2470.567,2022-3-14T10:20:38Z
2022-03-14T08:22:05Z,42.805,6.029,13.3000,4.60033,2470.553,2022-3-14T10:23:41Z
2022-03-14T08:25:08Z,42.805,6.029,13.3001,4.60033,2470.553,2022-3-14T10:26:44Z
2022-03-14T08:28:11Z,42.805,6.029,13.3003,4.60034,2470.553,2022-3-14T10:29:47Z
2022-03-14T08:31:14Z,42.805,6.029,13.3005,4.60033,2470.544,2022-3-14T10:32:50Z
2022-03-14T08:34:18Z,42.805,6.029,13.3003,4.60032,2470.53,2022-3-14T10:35:53Z
2022-03-14T08:37:21Z,42.805,6.029,13.3000,4.60032,2470.567,2022-3-14T10:38:56Z
2022-03-14T08:40:24Z,42.805,6.029,13.3006,4.60033,2470.567,2022-3-14T10:42:00Z
2022-03-14T08:43:27Z,42.805,6.029,13.3002,4.60033,2470.553,2022-3-14T10:45:03Z
2022-03-14T08:46:30Z,42.805,6.029,13.3004,4.60032,2470.53,2022-3-14T10:48:06Z
2022-03-14T08:49:33Z,42.805,6.029,13.3001,4.60032,2470.544,2022-3-14T10:51:09Z
2022-03-14T08:52:36Z,42.805,6.029,13.3002,4.60033,2470.553,2022-3-14T10:54:12Z
2022-03-14T08:55:39Z,42.805,6.029,13.3004,4.60033,2470.567,2022-3-14T10:57:15Z
2022-03-14T08:58:43Z,42.805,6.029,13.3004,4.60036,2470.544,2022-3-14T11:00:18Z
2022-03-14T09:01:46Z,42.805,6.029,13.3004,4.60033,2470.507,2022-3-14T11:03:21Z
2022-03-14T09:04:49Z,42.805,6.029,13.3005,4.60035,2470.53,2022-3-14T11:06:25Z
2022-03-14T09:07:52Z,42.805,6.029,13.3000,4.60034,2470.507,2022-3-14T11:09:28Z
2022-03-14T09:10:55Z,42.805,6.029,13.3005,4.60033,2470.53,2022-3-14T11:12:31Z
2022-03-14T09:13:58Z,42.805,6.029,13.2999,4.60032,2470.507,2022-3-14T11:15:34Z
2022-03-14T09:17:01Z,42.805,6.029,13.3000,4.60032,2470.53,2022-3-14T11:18:37Z
2022-03-14T09:20:04Z,42.805,6.029,13.3003,4.60033,2470.53,2022-3-14T11:21:40Z
2022-03-14T09:23:08Z,42.805,6.029,13.3001,4.60033,2470.507,2022-3-14T11:24:43Z
2022-03-14T09:26:11Z,42.805,6.029,13.2999,4.60031,2470.493,2022-3-14T11:27:46Z
2022-03-14T09:29:14Z,42.805,6.029,13.3000,4.60032,2470.53,2022-3-14T11:30:50Z
2022-03-14T09:32:17Z,42.805,6.029,13.3004,4.60032,2470.507,2022-3-14T11:33:53Z
2022-03-14T09:35:20Z,42.805,6.029,13.3002,4.60033,2470.483,2022-3-14T11:36:56Z
2022-03-14T09:38:23Z,42.805,6.029,13.3004,4.60032,2470.507,2022-3-14T11:39:59Z
2022-03-14T09:41:26Z,42.805,6.029,13.3001,4.60032,2470.507,2022-3-14T11:43:02Z
2022-03-14T09:44:29Z,42.805,6.029,13.2996,4.60034,2470.483,2022-3-14T11:46:05Z
2022-03-14T09:47:33Z,42.805,6.029,13.3000,4.60031,2470.52,2022-3-14T11:49:08Z
2022-03-14T09:50:36Z,42.805,6.029,13.3003,4.60035,2470.52,2022-3-14T11:52:11Z
2022-03-14T09:53:39Z,42.805,6.029,13.3002,4.60032,2470.507,2022-3-14T11:55:15Z
2022-03-14T09:56:42Z,42.805,6.029,13.2999,4.60031,2470.483,2022-3-14T11:58:18Z
2022-03-14T09:59:45Z,42.805,6.029,13.3002,4.60031,2470.497,2022-3-14T12:01:21Z
2022-03-14T10:02:48Z,42.805,6.029,13.3004,4.60032,2470.483,2022-3-14T12:04:24Z
2022-03-14T10:05:51Z,42.805,6.029,13.3004,4.60031,2470.437,2022-3-14T12:07:27Z
2022-03-14T10:08:54Z,42.805,6.029,13.3004,4.60032,2470.46,2022-3-14T12:10:30Z
2022-03-14T10:11:58Z,42.805,6.029,13.2999,4.60031,2470.52,2022-3-14T12:13:33Z
2022-03-14T10:15:01Z,42.805,6.029,13.3001,4.60031,2470.544,2022-3-14T12:16:36Z
2022-03-14T10:18:04Z,42.805,6.029,13.3000,4.60032,2470.507,2022-3-14T12:19:40Z
2022-03-14T10:21:07Z,42.805,6.029,13.3000,4.60033,2470.52,2022-3-14T12:22:43Z
2022-03-14T10:24:10Z,42.805,6.029,13.3000,4.60033,2470.507,2022-3-14T12:25:46Z
2022-03-14T10:27:13Z,42.805,6.029,13.3001,4.60032,2470.437,2022-3-14T12:28:49Z
2022-03-14T10:30:16Z,42.805,6.029,13.3000,4.60031,2470.507,2022-3-14T12:31:52Z
2022-03-14T10:33:20Z,42.805,6.029,13.3000,4.60034,2470.437,2022-3-14T12:34:55Z
2022-03-14T10:36:23Z,42.805,6.029,13.3001,4.60033,2470.47,2022-3-14T12:37:58Z
2022-03-14T10:39:26Z,42.805,6.029,13.3002,4.60032,2470.46,2022-3-14T12:41:02Z
2022-03-14T10:42:29Z,42.805,6.029,13.3000,4.60031,2470.507,2022-3-14T12:44:05Z
2022-03-14T10:45:32Z,42.805,6.029,13.3000,4.60035,2470.45,2022-3-14T12:47:08Z
2022-03-14T10:48:35Z,42.805,6.029,13.3003,4.60032,2470.497,2022-3-14T12:50:11Z
2022-03-14T10:51:38Z,42.805,6.029,13.3004,4.60031,2470.46,2022-3-14T12:53:14Z
2022-03-14T10:54:41Z,42.805,6.029,13.3001,4.60031,2470.483,2022-3-14T12:56:17Z
2022-03-14T10:57:45Z,42.805,6.029,13.3000,4.60031,2470.507,2022-3-14T12:59:20Z
2022-03-14T11:00:48Z,42.805,6.029,13.3001,4.60031,2470.474,2022-3-14T13:02:23Z
2022-03-14T11:03:51Z,42.805,6.029,13.3004,4.60032,2470.46,2022-3-14T13:05:27Z
2022-03-14T11:06:54Z,42.805,6.029,13.3001,4.60032,2470.437,2022-3-14T13:08:30Z
2022-03-14T11:09:57Z,42.805,6.029,13.3000,4.60031,2470.437,2022-3-14T13:11:33Z
2022-03-14T11:13:00Z,42.805,6.029,13.3004,4.60031,2470.483,2022-3-14T13:14:36Z
2022-03-14T11:16:03Z,42.805,6.029,13.3000,4.60032,2470.437,2022-3-14T13:17:39Z
2022-03-14T11:19:06Z,42.805,6.029,13.3000,4.60031,2470.437,2022-3-14T13:20:42Z
2022-03-14T11:22:10Z,42.805,6.029,13.2998,4.60032,2470.474,2022-3-14T13:23:45Z
2022-03-14T11:25:13Z,42.805,6.029,13.3003,4.60033,2470.437,2022-3-14T13:26:48Z
2022-03-14T11:28:16Z,42.805,6.029,13.3000,4.60031,2470.437,2022-3-14T13:29:52Z
2022-03-14T11:31:19Z,42.805,6.029,13.3001,4.60031,2470.427,2022-3-14T13:32:55Z
2022-03-14T11:34:22Z,42.805,6.029,13.3003,4.60034,2470.497,2022-3-14T13:35:58Z
2022-03-14T11:37:25Z,42.805,6.029,13.3004,4.60031,2470.45,2022-3-14T13:39:01Z
2022-03-14T11:40:28Z,42.805,6.029,13.2998,4.60032,2470.427,2022-3-14T13:42:04Z
2022-03-14T11:43:31Z,42.805,6.029,13.3000,4.60032,2470.437,2022-3-14T13:45:07Z
2022-03-14T11:46:35Z,42.805,6.029,13.3000,4.60031,2470.45,2022-3-14T13:48:10Z
2022-03-14T11:49:38Z,42.805,6.029,13.2998,4.60032,2470.437,2022-3-14T13:51:13Z
2022-03-14T11:52:41Z,42.805,6.029,13.3004,4.60032,2470.46,2022-3-14T13:54:17Z
2022-03-14T11:55:44Z,42.805,6.029,13.3000,4.60032,2470.45,2022-3-14T13:57:20Z
2022-03-14T11:58:47Z,42.805,6.029,13.3000,4.60032,2470.413,2022-3-14T14:00:23Z
2022-03-14T12:01:50Z,42.805,6.029,13.3001,4.60031,2470.427,2022-3-14T14:03:26Z
2022-03-14T12:04:53Z,42.805,6.029,13.2999,4.60031,2470.46,2022-3-14T14:06:29Z
2022-03-14T12:07:56Z,42.805,6.029,13.3003,4.60031,2470.46,2022-3-14T14:09:32Z
2022-03-14T12:11:00Z,42.805,6.029,13.3000,4.60033,2470.45,2022-3-14T14:12:35Z
2022-03-14T12:14:03Z,42.805,6.029,13.3004,4.60035,2470.427,2022-3-14T14:15:38Z
2022-03-14T12:17:06Z,42.805,6.029,13.3000,4.60031,2470.437,2022-3-14T14:18:42Z
2022-03-14T12:20:09Z,42.805,6.029,13.3000,4.60032,2470.474,2022-3-14T14:21:45Z
2022-03-14T12:23:12Z,42.805,6.029,13.3003,4.60031,2470.437,2022-3-14T14:24:48Z
2022-03-14T12:26:15Z,42.805,6.029,13.2998,4.60032,2470.427,2022-3-14T14:27:51Z
2022-03-14T12:29:18Z,42.805,6.029,13.3004,4.60031,2470.413,2022-3-14T14:30:54Z
2022-03-14T12:32:21Z,42.805,6.029,13.3001,4.60031,2470.45,2022-3-14T14:33:57Z
2022-03-14T12:35:25Z,42.805,6.029,13.2998,4.60031,2470.39,2022-3-14T14:37:00Z
2022-03-14T12:38:28Z,42.805,6.029,13.2998,4.60031,2470.437,2022-3-14T14:40:03Z
2022-03-14T12:41:31Z,42.805,6.029,13.3001,4.60043,2470.45,2022-3-14T14:43:07Z
2022-03-14T12:44:34Z,42.805,6.029,13.3003,4.60033,2470.413,2022-3-14T14:46:10Z
2022-03-14T12:47:37Z,42.805,6.029,13.2997,4.60033,2470.46,2022-3-14T14:49:13Z
2022-03-14T12:50:40Z,42.805,6.029,13.3000,4.60031,2470.437,2022-3-14T14:52:16Z
2022-03-14T12:53:43Z,42.805,6.029,13.2998,4.60032,2470.46,2022-3-14T14:55:19Z
2022-03-14T12:56:46Z,42.805,6.029,13.3005,4.60032,2470.45,2022-3-14T14:58:22Z
2022-03-14T12:59:50Z,42.805,6.029,13.3006,4.60031,2470.437,2022-3-14T15:01:25Z
2022-03-14T13:02:53Z,42.805,6.029,13.3005,4.60032,2470.437,2022-3-14T15:04:28Z
2022-03-14T13:05:56Z,42.805,6.029,13.3004,4.60033,2470.437,2022-3-14T15:07:32Z
2022-03-14T13:08:59Z,42.805,6.029,13.3001,4.60032,2470.46,2022-3-14T15:10:35Z
2022-03-14T13:12:02Z,42.805,6.029,13.2998,4.60031,2470.423,2022-3-14T15:13:38Z
2022-03-14T13:15:05Z,42.805,6.029,13.3000,4.60032,2470.427,2022-3-14T15:16:41Z
2022-03-14T13:18:08Z,42.805,6.029,13.3004,4.60031,2470.437,2022-3-14T15:19:44Z
2022-03-14T13:21:12Z,42.805,6.029,13.3000,4.60032,2470.437,2022-3-14T15:22:47Z
2022-03-14T13:24:15Z,42.805,6.029,13.3000,4.60032,2470.474,2022-3-14T15:25:50Z
2022-03-14T13:27:18Z,42.805,6.029,13.3002,4.60035,2470.46,2022-3-14T15:28:54Z
2022-03-14T13:30:21Z,42.805,6.029,13.3000,4.60031,2470.507,2022-3-14T15:31:57Z
2022-03-14T13:33:24Z,42.805,6.029,13.3000,4.60033,2470.437,2022-3-14T15:35:00Z
2022-03-14T13:36:27Z,42.805,6.029,13.2998,4.60034,2470.45,2022-3-14T15:38:03Z
2022-03-14T13:39:30Z,42.805,6.029,13.3003,4.60033,2470.413,2022-3-14T15:41:06Z
2022-03-14T13:42:33Z,42.805,6.029,13.3005,4.60033,2470.437,2022-3-14T15:44:09Z
2022-03-14T13:45:37Z,42.805,6.029,13.3001,4.60032,2470.46,2022-3-14T15:47:12Z
2022-03-14T13:48:40Z,42.805,6.029,13.2998,4.60032,2470.437,2022-3-14T15:50:15Z
2022-03-14T13:51:43Z,42.805,6.029,13.2999,4.60034,2470.437,2022-3-14T15:53:19Z
2022-03-14T13:54:46Z,42.805,6.029,13.3000,4.60033,2470.45,2022-3-14T15:56:22Z
2022-03-14T13:57:49Z,42.805,6.029,13.3000,4.60033,2470.483,2022-3-14T15:59:25Z
2022-03-14T14:00:52Z,42.805,6.029,13.3001,4.60032,2470.474,2022-3-14T16:02:28Z
2022-03-14T14:03:55Z,42.805,6.029,13.3000,4.60032,2470.474,2022-3-14T16:05:31Z
2022-03-14T14:06:58Z,42.805,6.029,13.3004,4.60032,2470.45,2022-3-14T16:08:34Z
2022-03-14T14:10:02Z,42.805,6.029,13.3000,4.60032,2470.413,2022-3-14T16:11:37Z
2022-03-14T14:13:05Z,42.805,6.029,13.3001,4.60035,2470.46,2022-3-14T16:14:40Z
2022-03-14T14:16:08Z,42.805,6.029,13.3000,4.60033,2470.437,2022-3-14T16:17:44Z
2022-03-14T14:19:11Z,42.805,6.029,13.3002,4.60033,2470.45,2022-3-14T16:20:47Z
2022-03-14T14:22:14Z,42.805,6.029,13.3001,4.60033,2470.45,2022-3-14T16:23:50Z
2022-03-14T14:25:17Z,42.805,6.029,13.3000,4.60031,2470.413,2022-3-14T16:26:53Z
2022-03-14T14:28:20Z,42.805,6.029,13.3000,4.60034,2470.474,2022-3-14T16:29:56Z
2022-03-14T14:31:23Z,42.805,6.029,13.3001,4.60033,2470.497,2022-3-14T16:32:59Z
2022-03-14T14:34:27Z,42.805,6.029,13.3003,4.60033,2470.483,2022-3-14T16:36:02Z
2022-03-14T14:37:30Z,42.805,6.029,13.3004,4.60032,2470.483,2022-3-14T16:39:05Z
2022-03-14T14:40:33Z,42.805,6.029,13.3000,4.60031,2470.497,2022-3-14T16:42:09Z
2022-03-14T14:43:36Z,42.805,6.029,13.3000,4.60033,2470.46,2022-3-14T16:45:12Z
2022-03-14T14:46:39Z,42.805,6.029,13.3000,4.60032,2470.46,2022-3-14T16:48:15Z
2022-03-14T14:49:42Z,42.805,6.029,13.2999,4.60033,2470.52,2022-3-14T16:51:18Z
2022-03-14T14:52:45Z,42.805,6.029,13.3003,4.60032,2470.45,2022-3-14T16:54:21Z
2022-03-14T14:55:48Z,42.805,6.029,13.3003,4.60031,2470.46,2022-3-14T16:57:24Z
2022-03-14T14:58:52Z,42.805,6.029,13.3006,4.60031,2470.46,2022-3-14T17:00:27Z
2022-03-14T15:01:55Z,42.805,6.029,13.3000,4.60036,2470.46,2022-3-14T17:03:31Z
2022-03-14T15:04:58Z,42.805,6.029,13.3002,4.60031,2470.52,2022-3-14T17:06:34Z
2022-03-14T15:08:01Z,42.805,6.029,13.3002,4.60033,2470.507,2022-3-14T17:09:37Z
2022-03-14T15:11:04Z,42.805,6.029,13.2999,4.60033,2470.483,2022-3-14T17:12:40Z
2022-03-14T15:14:07Z,42.805,6.029,13.3005,4.60036,2470.483,2022-3-14T17:15:43Z